Weather History for KCLS - September, 2013

Change the Weather History Date:

Saturday, September 21, 2013

  Actual Average (KOLM) Record (KOLM)
Temperature  
Mean Temperature 60 °F 58 °F  
Max Temperature 68 °F 70 °F 91 °F (1974)
Min Temperature 53 °F 45 °F 32 °F (1955)
Degree Days  
Heating Degree Days 4 8  
Month to date heating degree days 110  
Since 1 July heating degree days 260  
Cooling Degree Days 0 0  
Month to date cooling degree days 4  
Year to date cooling degree days 103  
Growing Degree Days 10 (Base 50)    
Moisture  
Dew Point 55 °F    
Average Humidity 87    
Maximum Humidity 100    
Minimum Humidity 52    
Precipitation  
Precipitation 0.00 in 0.06 in 1.51 in (1972)
Month to date precipitation 1.09  
Year to date precipitation 28.69  
Sea Level Pressure  
Sea Level Pressure 29.72 in    
Wind  
Wind Speed 2 mph (SW)    
Max Wind Speed 8 mph    
Max Gust Speed 17 mph    
Visibility 7 miles    
Events Fog , Rain    
T = Trace of Precipitation, MM = Missing Value Source: NWS Daily Summary

Daily Weather History Graph

Daily Weather History Graph

Search for Another Location

Airport or City:

Trip Planner

Search our weather history database for the weather conditions in past years. The results will help you decide how hot, cold, wet, or windy it might be!

Date:

Astronomy

Sep. 21, 2013 Rise Set
Actual Time 6:57 AM PDT 7:10 PM PDT
Civil Twilight 6:27 AM PDT 7:41 PM PDT
Nautical Twilight 5:52 AM PDT 8:16 PM PDT
Astronomical Twilight 5:15 AM PDT 8:53 PM PDT
Moon 8:12 PM PDT (9/21) 9:33 AM PDT (9/21)
Length of Visible Light 13h 13m
Length of Day
12h 12m
Waning Gibbous, 94% of the Moon is Illuminated
Sep 21
Waning Gibbous
Sep 26
Last Quarter
Oct 4
New
Oct 11
First Quarter
Oct 18
Full

Hourly Weather History & Observations

Time (PDT) Temp. Dew Point Humidity Pressure Visibility Wind Dir Wind Speed Gust Speed Precip Events Conditions
12:15 AM 57.2 °F 57.2 °F 100% 29.69 in 10.0 mi Calm Calm - N/A   Overcast
12:35 AM 57.2 °F 57.2 °F 100% 29.68 in 10.0 mi Calm Calm - N/A   Overcast
12:55 AM 57.2 °F 55.4 °F 94% 29.69 in 10.0 mi Calm Calm - N/A   Overcast
1:15 AM 57.2 °F 55.4 °F 94% 29.69 in 10.0 mi West 3.5 mph - N/A   Overcast
1:35 AM 57.2 °F 55.4 °F 94% 29.69 in 10.0 mi Calm Calm - N/A   Unknown
1:55 AM 57.2 °F 55.4 °F 94% 29.69 in 9.0 mi WSW 3.5 mph - N/A   Unknown
2:15 AM 55.4 °F 55.4 °F 100% 29.70 in 8.0 mi SSW 3.5 mph - N/A   Overcast
2:35 AM 55.4 °F 55.4 °F 100% 29.70 in 8.0 mi Calm Calm - N/A   Mostly Cloudy
2:55 AM 55.4 °F 55.4 °F 100% 29.69 in 8.0 mi West 3.5 mph - N/A   Mostly Cloudy
3:15 AM 55.4 °F 55.4 °F 100% 29.70 in 5.0 mi Calm Calm - N/A   Scattered Clouds
3:35 AM 53.6 °F 53.6 °F 100% 29.70 in 1.2 mi WSW 3.5 mph - N/A   Mostly Cloudy
3:55 AM 53.6 °F 53.6 °F 100% 29.70 in 0.5 mi West 3.5 mph - N/A Fog Fog
4:15 AM 53.6 °F 53.6 °F 100% 29.70 in 0.2 mi Calm Calm - N/A Fog Fog
4:35 AM 53.6 °F 53.6 °F 100% 29.70 in 0.2 mi Calm Calm - N/A Fog Fog
4:55 AM 53.6 °F 53.6 °F 100% 29.70 in 0.2 mi Calm Calm - N/A Fog Fog
5:15 AM 53.6 °F 53.6 °F 100% 29.70 in 1.8 mi Calm Calm - N/A   Overcast
5:35 AM 53.6 °F 53.6 °F 100% 29.70 in 3.0 mi Calm Calm - N/A   Overcast
5:55 AM 53.6 °F 53.6 °F 100% 29.70 in 0.2 mi Calm Calm - N/A Fog Fog
6:15 AM 53.6 °F 53.6 °F 100% 29.71 in 0.2 mi SW 4.6 mph - N/A Fog Fog
6:35 AM 53.6 °F 53.6 °F 100% 29.71 in 0.2 mi SW 4.6 mph - N/A Fog Fog
6:55 AM 53.6 °F 53.6 °F 100% 29.71 in 0.2 mi SW 4.6 mph - N/A Fog Fog
7:15 AM 53.6 °F 53.6 °F 100% 29.72 in 0.2 mi Calm Calm - N/A Fog Fog
7:35 AM 53.6 °F 53.6 °F 100% 29.71 in 0.2 mi Calm Calm - N/A Fog Fog
7:55 AM 53.6 °F 53.6 °F 100% 29.72 in 0.2 mi West 3.5 mph - N/A Fog Fog
8:15 AM 53.6 °F 53.6 °F 100% 29.72 in 0.2 mi Calm Calm - N/A Fog Fog
8:35 AM 53.6 °F 53.6 °F 100% 29.73 in 0.2 mi Calm Calm - N/A Fog Fog
8:55 AM 53.6 °F 53.6 °F 100% 29.73 in 0.2 mi Calm Calm - N/A Fog Fog
9:15 AM 55.4 °F 55.4 °F 100% 29.73 in 0.2 mi Calm Calm - N/A Fog Fog
9:35 AM 55.4 °F 55.4 °F 100% 29.74 in 0.2 mi Calm Calm - N/A Fog Fog
9:55 AM 55.4 °F 55.4 °F 100% 29.74 in 0.5 mi Calm Calm - N/A Fog Fog
10:15 AM 57.2 °F 57.2 °F 100% 29.74 in 3.0 mi Calm Calm - N/A   Overcast
10:35 AM 59.0 °F 57.2 °F 94% 29.74 in 10.0 mi South 3.5 mph - N/A   Mostly Cloudy
10:55 AM 62.6 °F 57.2 °F 82% 29.74 in 8.0 mi WSW 3.5 mph - N/A   Scattered Clouds
11:15 AM 64.4 °F 57.2 °F 77% 29.74 in 10.0 mi Calm Calm - N/A   Partly Cloudy
11:35 AM 64.4 °F 55.4 °F 73% 29.74 in 10.0 mi Calm Calm - N/A   Clear
11:55 AM 66.2 °F 55.4 °F 68% 29.74 in 10.0 mi South 3.5 mph - N/A   Partly Cloudy
12:15 PM 66.2 °F 55.4 °F 68% 29.73 in 8.0 mi SSW 4.6 mph - N/A   Scattered Clouds
12:35 PM 64.4 °F 53.6 °F 68% 29.73 in 6.0 mi WSW 3.5 mph - N/A   Haze
12:55 PM 66.2 °F 53.6 °F 64% 29.73 in 10.0 mi Calm Calm - N/A   Clear
1:15 PM 66.2 °F 53.6 °F 64% 29.73 in 10.0 mi West 4.6 mph - N/A   Partly Cloudy
1:35 PM 66.2 °F 53.6 °F 64% 29.72 in 8.0 mi NNW 4.6 mph - N/A   Partly Cloudy
1:55 PM 66.2 °F 55.4 °F 68% 29.72 in 10.0 mi WSW 3.5 mph - N/A   Scattered Clouds
2:15 PM 68.0 °F 53.6 °F 60% 29.71 in 10.0 mi WSW 4.6 mph - N/A   Scattered Clouds
2:35 PM 68.0 °F 55.4 °F 64% 29.71 in 6.0 mi WSW 5.8 mph - N/A   Haze
2:55 PM 68.0 °F 50.0 °F 52% 29.71 in 10.0 mi West 8.1 mph - N/A   Partly Cloudy
3:15 PM 66.2 °F 53.6 °F 64% 29.72 in 10.0 mi WNW 5.8 mph 17.3 mph N/A   Clear
3:35 PM 64.4 °F 53.6 °F 68% 29.72 in 10.0 mi WNW 5.8 mph - N/A   Partly Cloudy
3:55 PM 64.4 °F 53.6 °F 68% 29.72 in 10.0 mi WNW 6.9 mph - N/A   Scattered Clouds
4:15 PM 64.4 °F 55.4 °F 73% 29.73 in 10.0 mi Calm Calm - N/A   Mostly Cloudy
4:35 PM 64.4 °F 57.2 °F 77% 29.73 in 10.0 mi SW 5.8 mph - N/A   Mostly Cloudy
4:55 PM 64.4 °F 55.4 °F 73% 29.73 in 10.0 mi SW 5.8 mph - N/A   Mostly Cloudy
5:15 PM 64.4 °F 55.4 °F 73% 29.73 in 10.0 mi SW 4.6 mph - N/A   Overcast
5:35 PM 64.4 °F 53.6 °F 68% 29.73 in 10.0 mi WSW 4.6 mph - N/A   Overcast
5:55 PM 62.6 °F 53.6 °F 72% 29.74 in 10.0 mi WSW 4.6 mph - N/A   Overcast
6:15 PM 62.6 °F 53.6 °F 72% 29.74 in 10.0 mi WSW 4.6 mph - N/A   Overcast
6:35 PM 62.6 °F 55.4 °F 77% 29.74 in 10.0 mi SSW 3.5 mph - N/A   Overcast
6:55 PM 62.6 °F 55.4 °F 77% 29.75 in 10.0 mi SSW 3.5 mph - N/A   Overcast
7:15 PM 62.6 °F 55.4 °F 77% 29.74 in 10.0 mi South 3.5 mph - N/A   Overcast
7:35 PM 62.6 °F 55.4 °F 77% 29.74 in 10.0 mi SSW 4.6 mph - N/A   Overcast
7:55 PM 59.0 °F 57.2 °F 94% 29.74 in 10.0 mi South 5.8 mph - N/A   Overcast
8:15 PM 59.0 °F 57.2 °F 94% 29.75 in 10.0 mi SW 3.5 mph - N/A   Overcast
8:35 PM 59.0 °F 57.2 °F 94% 29.75 in 6.0 mi SSW 3.5 mph - N/A   Overcast
8:55 PM 59.0 °F 57.2 °F 94% 29.75 in 8.0 mi SSW 3.5 mph - N/A   Overcast
9:15 PM 59.0 °F 57.2 °F 94% 29.75 in 8.0 mi South 3.5 mph - N/A   Overcast
9:35 PM 59.0 °F 57.2 °F 94% 29.75 in 7.0 mi South 4.6 mph - N/A   Overcast
9:55 PM 59.0 °F 57.2 °F 94% 29.75 in 10.0 mi South 4.6 mph - N/A   Overcast
10:15 PM 59.0 °F 55.4 °F 88% 29.75 in 10.0 mi South 6.9 mph - N/A   Overcast
10:35 PM 59.0 °F 55.4 °F 88% 29.76 in 10.0 mi South 6.9 mph - N/A   Overcast
10:55 PM 59.0 °F 55.4 °F 88% 29.75 in 9.0 mi SSW 3.5 mph - N/A   Overcast
11:15 PM 57.2 °F 55.4 °F 94% 29.75 in 10.0 mi South 6.9 mph - N/A   Overcast
11:35 PM 57.2 °F 55.4 °F 94% 29.76 in 10.0 mi South 5.8 mph - N/A   Overcast
11:55 PM 57.2 °F 55.4 °F 94% 29.76 in 8.0 mi South 5.8 mph - N/A Rain Light Rain